Regional Weather Roundup
Issued by NWS New Orleans/Baton Rouge, LA

Home | Current Version | Previous Version | Text Only | Print | Product List | Glossary On
Versions: 1 2 3 4 5 6 7 8 9 10 11 12 13 14 15 16 17 18 19 20 21 22 23 24 25 26 27 28 29 30 31 32 33 34 35 36 37 38 39 40 41 42 43 44 45 46 47 48 49 50
000
ASUS44 KLIX 041112
RWRLIX
NEW ORLEANS REGIONAL WEATHER ROUNDUP
NATIONAL WEATHER SERVICE NEW ORLEANS LA
600 AM CDT FRI SEP 04 2015

NOTE: "FAIR" INDICATES FEW OR NO CLOUDS BELOW 12,000 FEET WITH NO
      SIGNIFICANT WEATHER AND/OR OBSTRUCTIONS TO VISIBILITY.
      SKY/WX - SKY CONDITION AND SIGNIFICANT WEATHER.
      TMP - AIR TEMPERATURE.     DP    - DEWPOINT TEMPERATURE.
      RH  - RELATIVE HUMIDITY.   PRES  - PRESSURE.
      HI  - HEAT INDEX.          WCI   - WIND CHILL INDEX.

*  THESE STATIONS ARE NOT NWS OR FAA STATIONS AND ARE NOT UNDER
   NWS QUALITY CONTROL.

LAZ038-040-048-061>063-065>067-069-041200-
SOUTHEAST LOUISIANA

CITY           SKY/WX    TMP DP  RH WIND       PRES   REMARKS
N.O. AUDUBON   NOT AVBL
N.O. INTL ARPT MOCLDY    78  73  84 CALM      29.96S
N.O. LAKEFRONT PTCLDY    78  75  90 CALM      29.97R
N.O. DOWNTOWN*   N/A     81  75  83 CALM      29.98R
RESERVE*         N/A     76  74  93 CALM      29.96S FOG
SLIDELL        MOCLDY    72  72 100 N3        29.97R
BATON ROUGE    CLEAR     75  72  90 CALM      29.96S
BOOTHVILLE     PTCLDY    80  76  87 E3        29.97R
BELLE CHASSE   MOCLDY    75  73  93 CALM      29.96S FOG
BOGALUSA*      NOT AVBL
GALLIANO*      MOSUNNY   71  71  99 CALM      29.96S FOG
NEW ROADS*       N/A     74  74  97 CALM      29.96S
GONZALES*        N/A     73  73 100 CALM      29.96S
HAMMOND*       MOCLDY    73  70  88 CALM      29.98S
HOUMA*           N/A     73  73 100 CALM      29.97R FOG
PORT FOURCHON* SUNNY     82  75  78 SW7       29.97S

$$

MSZ070-080>082-041200-
SOUTHERN MISSISSIPPI

CITY           SKY/WX    TMP DP  RH WIND       PRES   REMARKS
MCCOMB         CLOUDY    73  73 100 CALM      29.99R FOG
GULFPORT       PTCLDY    74  71  91 CALM      29.97R
BILOXI         MOCLDY    76  74  95 N5        29.97R
PASCAGOULA     PTCLDY    71  70  96 CALM      29.97S

$$

COASTAL OBSERVATIONS
LAKE AND NEARSHORE STATIONS

STATION/POSITION TIME  TEMP    WIND        PRES    WAVE
                       AIR SEA DIR/SP/G            HT/PER
                 (UTC) (F)     (DEG/KT/KT) (MB)    (FT/S)
PASCAGOULA       1000   81     230/  4/  7 1014.3
WAVELAND YACHT   1000   78 85  260/  3/  3 1015.0
GRAND ISLE       1000   82 84  200/  1/  3 1014.6
SOUTHWEST PASS   1000   82 85  180/  1/  5 1014.8
NEW CANAL        1000   79 84   CALM  /  1 1013.8
SHELL BEACH      1000   80 84  150/  2/  3 1014.0

OFFSHORE STATIONS

STATION/POSITION TIME  TEMP    WIND        PRES    WAVE
                       AIR SEA DIR/SP/G            HT/PER
                 (UTC) (F)     (DEG/KT/KT) (MB)    (FT/S)
64 S DAUPHIN ISL 1050   80 84  230/ 10/ 10 1015.1    1/ 4

$$



USA.gov is the U.S. government's official web portal to all federal, state and local government web resources and services.